Location: Chuathbaluk
(61.5726°N, 159.2454°W)
Time: 05:00:32
(UTC+00:00)

Transit 2A - Pass Details

Date: 26 November 2020
Orbit: 599 x 960 km, 66.7° (Epoch: 26 January)

Event Time Altitude Azimuth Distance (km) Brightness Sun altitude
Rises 07:10:03 0° 246° (WSW) 3,599 9.9 -37.6°
Reaches altitude 10° 07:12:41 10° 248° (WSW) 2,626 9.1 -37.8°
Enters shadow 07:15:03 24° 253° (WSW) 1,783 8.1 -38.1°
Maximum altitude 07:18:49 72° 333° (NNW) 923 - -38.5°
Drops below altitude 10° 07:24:26 10° 58° (ENE) 2,417 - -39.1°
Sets 07:26:47 0° 61° (ENE) 3,294 - -39.3°
